GFSNE_prec_pwat_003.txt.gz
Precipitable_Water
0.19 0.20 0.21 0.21 0.22 0.23 0.24 0.23 0.20 0.16 0.14 0.16 0.18 0.21 0.29 0.25 0.32 0.28 0.24 0.24 0.29 0.30 0.26 0.35 0.42 0.42 0.39 0.40 0.56 0.61 0.66 0.76 0.87 0.96 0.98 1.03 1.02 1.11
0.19 0.20 0.20 0.21 0.22 0.23 0.22 0.23 0.22 0.19 0.16 0.19 0.20 0.23 0.25 0.28 0.28 0.28 0.30 0.28 0.28 0.31 0.29 0.30 0.35 0.34 0.44 0.42 0.43 0.47 0.49 0.60 0.75 0.78 0.87 0.97 1.00 1.01
0.19 0.19 0.20 0.21 0.21 0.21 0.22 0.21 0.21 0.22 0.20 0.19 0.23 0.24 0.23 0.24 0.25 0.28 0.30 0.30 0.29 0.28 0.28 0.31 0.31 0.36 0.37 0.38 0.36 0.33 0.37 0.49 0.60 0.63 0.68 0.85 0.96 0.96
0.18 0.19 0.19 0.20 0.21 0.22 0.21 0.21 0.21 0.21 0.20 0.19 0.21 0.22 0.23 0.25 0.27 0.28 0.26 0.26 0.27 0.29 0.28 0.30 0.31 0.34 0.40 0.40 0.41 0.48 0.44 0.46 0.51 0.51 0.52 0.67 0.80 0.86
0.19 0.19 0.20 0.21 0.21 0.21 0.22 0.21 0.20 0.22 0.24 0.23 0.21 0.23 0.25 0.28 0.27 0.27 0.24 0.23 0.26 0.27 0.28 0.28 0.30 0.36 0.35 0.42 0.45 0.49 0.54 0.55 0.52 0.43 0.50 0.59 0.69 0.75
0.20 0.21 0.22 0.22 0.21 0.21 0.21 0.22 0.23 0.23 0.23 0.24 0.23 0.24 0.26 0.26 0.28 0.25 0.21 0.21 0.20 0.23 0.25 0.27 0.29 0.32 0.40 0.44 0.42 0.42 0.45 0.43 0.46 0.46 0.55 0.56 0.65 0.68
0.21 0.22 0.23 0.23 0.23 0.23 0.23 0.24 0.25 0.24 0.23 0.23 0.23 0.23 0.23 0.20 0.20 0.20 0.19 0.21 0.22 0.25 0.26 0.26 0.29 0.35 0.35 0.35 0.36 0.39 0.42 0.41 0.43 0.50 0.53 0.52 0.59 0.62
0.21 0.22 0.22 0.22 0.21 0.22 0.25 0.25 0.27 0.24 0.25 0.25 0.26 0.23 0.21 0.20 0.19 0.21 0.22 0.21 0.17 0.24 0.25 0.23 0.29 0.29 0.31 0.34 0.36 0.42 0.41 0.44 0.43 0.42 0.49 0.54 0.54 0.55
0.22 0.21 0.21 0.21 0.23 0.24 0.24 0.25 0.27 0.28 0.27 0.26 0.23 0.21 0.19 0.22 0.23 0.23 0.22 0.19 0.18 0.22 0.27 0.23 0.33 0.31 0.37 0.35 0.34 0.38 0.41 0.42 0.41 0.42 0.48 0.52 0.54 0.54
0.21 0.22 0.22 0.22 0.24 0.25 0.26 0.28 0.28 0.26 0.23 0.24 0.23 0.21 0.24 0.25 0.26 0.22 0.22 0.24 0.25 0.27 0.29 0.26 0.32 0.35 0.35 0.38 0.35 0.37 0.37 0.41 0.45 0.45 0.45 0.46 0.49 0.51
0.22 0.23 0.24 0.25 0.25 0.28 0.28 0.25 0.20 0.19 0.23 0.24 0.24 0.24 0.24 0.23 0.23 0.24 0.22 0.22 0.21 0.25 0.30 0.29 0.31 0.32 0.33 0.35 0.35 0.38 0.43 0.42 0.41 0.43 0.42 0.42 0.43 0.45
0.23 0.24 0.25 0.25 0.27 0.28 0.25 0.21 0.19 0.20 0.23 0.22 0.21 0.20 0.21 0.22 0.24 0.26 0.26 0.23 0.23 0.22 0.28 0.28 0.30 0.32 0.30 0.34 0.38 0.38 0.37 0.38 0.44 0.46 0.49 0.49 0.48 0.49
0.24 0.23 0.23 0.24 0.27 0.25 0.22 0.21 0.21 0.24 0.22 0.20 0.19 0.20 0.22 0.24 0.25 0.27 0.29 0.27 0.24 0.24 0.30 0.31 0.30 0.31 0.31 0.30 0.36 0.39 0.40 0.41 0.46 0.49 0.55 0.60 0.61 0.58
0.23 0.22 0.23 0.28 0.24 0.21 0.21 0.21 0.22 0.22 0.19 0.19 0.20 0.21 0.23 0.25 0.28 0.29 0.30 0.31 0.31 0.29 0.31 0.32 0.29 0.31 0.30 0.30 0.30 0.37 0.39 0.43 0.48 0.50 0.56 0.60 0.62 0.66
0.23 0.24 0.27 0.22 0.20 0.20 0.20 0.20 0.20 0.20 0.21 0.21 0.22 0.24 0.27 0.29 0.30 0.30 0.32 0.33 0.34 0.34 0.36 0.37 0.35 0.35 0.32 0.30 0.29 0.34 0.36 0.42 0.48 0.50 0.53 0.55 0.56 0.60
0.25 0.27 0.20 0.19 0.20 0.19 0.19 0.19 0.21 0.22 0.23 0.24 0.26 0.28 0.29 0.29 0.29 0.32 0.31 0.33 0.32 0.34 0.38 0.39 0.37 0.35 0.32 0.33 0.33 0.33 0.39 0.37 0.46 0.49 0.54 0.56 0.58 0.61
0.24 0.20 0.18 0.18 0.17 0.18 0.18 0.21 0.22 0.24 0.26 0.28 0.28 0.28 0.29 0.30 0.30 0.32 0.33 0.33 0.31 0.31 0.32 0.34 0.36 0.36 0.36 0.36 0.34 0.37 0.39 0.41 0.46 0.48 0.53 0.51 0.55 0.59
0.19 0.18 0.17 0.18 0.17 0.18 0.20 0.21 0.24 0.27 0.28 0.28 0.29 0.29 0.29 0.29 0.30 0.32 0.33 0.33 0.31 0.32 0.32 0.33 0.33 0.33 0.35 0.37 0.40 0.37 0.40 0.41 0.45 0.47 0.50 0.49 0.49 0.56
0.18 0.18 0.18 0.18 0.18 0.20 0.22 0.26 0.27 0.28 0.30 0.29 0.29 0.30 0.30 0.30 0.31 0.31 0.32 0.32 0.32 0.32 0.33 0.34 0.33 0.31 0.30 0.29 0.36 0.43 0.39 0.42 0.43 0.44 0.46 0.47 0.47 0.52
0.19 0.18 0.18 0.18 0.20 0.23 0.27 0.27 0.28 0.29 0.30 0.30 0.30 0.30 0.31 0.30 0.30 0.31 0.31 0.30 0.31 0.32 0.33 0.34 0.34 0.33 0.31 0.31 0.33 0.38 0.45 0.42 0.42 0.41 0.41 0.46 0.50 0.54
0.19 0.19 0.19 0.20 0.24 0.27 0.28 0.29 0.29 0.29 0.30 0.30 0.31 0.30 0.31 0.32 0.32 0.32 0.32 0.32 0.33 0.33 0.32 0.33 0.34 0.37 0.38 0.39 0.35 0.36 0.41 0.47 0.47 0.43 0.44 0.42 0.42 0.43
0.19 0.19 0.21 0.25 0.28 0.29 0.29 0.30 0.30 0.30 0.31 0.30 0.30 0.32 0.33 0.34 0.33 0.33 0.33 0.33 0.33 0.34 0.34 0.35 0.36 0.36 0.33 0.35 0.34 0.35 0.38 0.42 0.46 0.48 0.48 0.45 0.41 0.38
0.20 0.21 0.25 0.28 0.29 0.30 0.30 0.30 0.30 0.30 0.29 0.29 0.29 0.30 0.31 0.30 0.32 0.32 0.32 0.32 0.33 0.33 0.34 0.35 0.34 0.34 0.32 0.31 0.31 0.34 0.35 0.35 0.38 0.37 0.38 0.41 0.37 0.38

GFSNE_prec_pwat_006.txt.gz
Precipitable_Water
0.20 0.19 0.19 0.19 0.20 0.21 0.22 0.21 0.20 0.15 0.15 0.17 0.17 0.21 0.24 0.24 0.25 0.30 0.26 0.26 0.27 0.27 0.28 0.30 0.30 0.32 0.32 0.32 0.32 0.33 0.37 0.41 0.41 0.48 0.62 0.70 0.87 0.96
0.19 0.17 0.17 0.18 0.19 0.20 0.20 0.22 0.22 0.20 0.16 0.17 0.19 0.20 0.20 0.23 0.24 0.26 0.26 0.26 0.27 0.29 0.28 0.28 0.29 0.30 0.32 0.33 0.36 0.34 0.39 0.42 0.42 0.41 0.47 0.57 0.67 0.86
0.17 0.16 0.16 0.18 0.18 0.19 0.21 0.22 0.22 0.22 0.20 0.18 0.19 0.19 0.21 0.21 0.21 0.24 0.28 0.29 0.28 0.29 0.29 0.28 0.27 0.28 0.29 0.30 0.30 0.33 0.40 0.40 0.43 0.47 0.48 0.51 0.64 0.73
0.16 0.16 0.16 0.18 0.19 0.20 0.22 0.22 0.22 0.22 0.20 0.17 0.20 0.21 0.21 0.22 0.24 0.24 0.25 0.29 0.27 0.27 0.26 0.26 0.23 0.25 0.27 0.29 0.28 0.29 0.36 0.42 0.48 0.51 0.55 0.54 0.54 0.56
0.17 0.17 0.18 0.19 0.19 0.22 0.22 0.22 0.22 0.22 0.24 0.24 0.20 0.23 0.24 0.26 0.24 0.25 0.26 0.24 0.23 0.21 0.22 0.24 0.26 0.27 0.28 0.30 0.30 0.31 0.38 0.44 0.44 0.45 0.51 0.50 0.48 0.53
0.19 0.19 0.20 0.21 0.22 0.22 0.22 0.23 0.24 0.25 0.25 0.24 0.24 0.25 0.23 0.25 0.30 0.24 0.20 0.20 0.18 0.22 0.22 0.26 0.26 0.23 0.27 0.29 0.29 0.31 0.35 0.37 0.40 0.44 0.50 0.48 0.52 0.51
0.20 0.21 0.23 0.24 0.25 0.25 0.25 0.25 0.26 0.24 0.26 0.26 0.24 0.25 0.24 0.23 0.21 0.21 0.19 0.18 0.19 0.22 0.24 0.19 0.21 0.22 0.24 0.26 0.29 0.30 0.34 0.39 0.42 0.46 0.47 0.48 0.48 0.47
0.20 0.22 0.23 0.23 0.23 0.25 0.26 0.26 0.26 0.28 0.26 0.25 0.23 0.20 0.19 0.20 0.23 0.21 0.19 0.19 0.17 0.24 0.20 0.20 0.25 0.24 0.28 0.33 0.32 0.36 0.40 0.37 0.38 0.40 0.43 0.46 0.45 0.45
0.21 0.22 0.22 0.23 0.24 0.24 0.25 0.28 0.32 0.31 0.28 0.24 0.20 0.19 0.21 0.24 0.23 0.22 0.22 0.21 0.18 0.21 0.23 0.21 0.28 0.28 0.29 0.31 0.34 0.36 0.38 0.37 0.33 0.36 0.42 0.42 0.43 0.47
0.23 0.23 0.23 0.23 0.24 0.26 0.27 0.30 0.28 0.25 0.22 0.22 0.22 0.24 0.26 0.25 0.24 0.23 0.21 0.22 0.23 0.25 0.27 0.22 0.28 0.26 0.30 0.34 0.36 0.35 0.37 0.36 0.40 0.39 0.39 0.41 0.40 0.42
0.23 0.24 0.25 0.25 0.26 0.27 0.28 0.27 0.25 0.21 0.22 0.23 0.27 0.26 0.23 0.22 0.23 0.23 0.22 0.22 0.20 0.22 0.26 0.25 0.26 0.27 0.30 0.32 0.36 0.37 0.40 0.37 0.34 0.34 0.37 0.39 0.40 0.39
0.24 0.26 0.26 0.25 0.24 0.27 0.27 0.23 0.20 0.19 0.22 0.25 0.20 0.19 0.21 0.23 0.26 0.27 0.27 0.23 0.22 0.21 0.25 0.24 0.25 0.27 0.25 0.31 0.35 0.34 0.36 0.38 0.37 0.38 0.40 0.40 0.41 0.41
0.23 0.23 0.24 0.22 0.27 0.27 0.23 0.21 0.20 0.23 0.23 0.20 0.20 0.22 0.24 0.27 0.29 0.30 0.30 0.28 0.25 0.23 0.27 0.28 0.26 0.26 0.26 0.27 0.32 0.37 0.36 0.36 0.37 0.42 0.45 0.48 0.52 0.54
0.23 0.23 0.21 0.26 0.25 0.22 0.21 0.21 0.22 0.22 0.21 0.22 0.22 0.25 0.26 0.27 0.28 0.30 0.31 0.32 0.33 0.32 0.32 0.32 0.27 0.28 0.27 0.27 0.27 0.32 0.35 0.38 0.42 0.44 0.49 0.54 0.57 0.58
0.23 0.22 0.26 0.24 0.21 0.20 0.20 0.21 0.21 0.22 0.23 0.24 0.26 0.26 0.28 0.30 0.31 0.32 0.32 0.34 0.34 0.35 0.36 0.36 0.34 0.33 0.30 0.27 0.27 0.31 0.34 0.39 0.45 0.47 0.49 0.51 0.53 0.56
0.23 0.26 0.22 0.21 0.19 0.19 0.19 0.20 0.23 0.25 0.27 0.27 0.27 0.29 0.30 0.30 0.30 0.32 0.31 0.32 0.31 0.32 0.35 0.36 0.35 0.33 0.30 0.30 0.31 0.33 0.37 0.36 0.44 0.46 0.47 0.48 0.51 0.55
0.24 0.21 0.19 0.18 0.18 0.18 0.19 0.23 0.26 0.27 0.28 0.28 0.28 0.28 0.29 0.30 0.30 0.32 0.32 0.32 0.30 0.31 0.30 0.33 0.35 0.35 0.34 0.32 0.30 0.35 0.37 0.39 0.43 0.46 0.47 0.46 0.50 0.57
0.20 0.18 0.18 0.18 0.17 0.19 0.23 0.25 0.27 0.28 0.29 0.29 0.29 0.29 0.29 0.29 0.30 0.31 0.32 0.31 0.30 0.30 0.30 0.32 0.32 0.32 0.33 0.33 0.37 0.35 0.39 0.40 0.45 0.48 0.50 0.48 0.48 0.55
0.18 0.18 0.18 0.18 0.20 0.24 0.26 0.27 0.27 0.29 0.30 0.30 0.30 0.30 0.30 0.30 0.31 0.31 0.31 0.32 0.31 0.32 0.32 0.33 0.32 0.31 0.28 0.27 0.34 0.43 0.39 0.42 0.45 0.46 0.48 0.49 0.49 0.52
0.19 0.19 0.18 0.21 0.25 0.26 0.27 0.27 0.28 0.29 0.30 0.30 0.30 0.30 0.31 0.31 0.31 0.31 0.32 0.32 0.32 0.32 0.33 0.34 0.33 0.32 0.30 0.30 0.32 0.37 0.45 0.42 0.44 0.44 0.45 0.50 0.53 0.57
0.19 0.20 0.22 0.25 0.27 0.28 0.28 0.29 0.29 0.29 0.30 0.29 0.29 0.30 0.31 0.32 0.32 0.32 0.33 0.33 0.33 0.33 0.32 0.33 0.35 0.39 0.39 0.39 0.34 0.36 0.41 0.47 0.47 0.45 0.45 0.44 0.44 0.47
0.21 0.22 0.26 0.27 0.28 0.29 0.29 0.29 0.29 0.28 0.28 0.28 0.27 0.28 0.30 0.31 0.30 0.31 0.32 0.32 0.33 0.34 0.34 0.34 0.37 0.37 0.37 0.35 0.34 0.35 0.37 0.42 0.46 0.47 0.48 0.47 0.43 0.39
0.23 0.26 0.27 0.28 0.29 0.30 0.30 0.29 0.28 0.27 0.28 0.28 0.27 0.28 0.29 0.29 0.30 0.31 0.32 0.32 0.31 0.32 0.35 0.34 0.34 0.34 0.35 0.36 0.35 0.36 0.37 0.38 0.40 0.39 0.40 0.48 0.49 0.50

GFSNE_prec_pwat_009.txt.gz
Precipitable_Water
0.23 0.21 0.20 0.18 0.17 0.17 0.18 0.18 0.17 0.14 0.14 0.16 0.17 0.21 0.23 0.23 0.22 0.24 0.23 0.22 0.23 0.26 0.27 0.29 0.31 0.33 0.31 0.34 0.31 0.32 0.34 0.35 0.37 0.36 0.38 0.47 0.47 0.49
0.20 0.18 0.17 0.17 0.16 0.17 0.18 0.20 0.20 0.18 0.15 0.18 0.19 0.21 0.21 0.22 0.24 0.24 0.24 0.25 0.24 0.26 0.28 0.29 0.32 0.29 0.31 0.29 0.33 0.29 0.30 0.34 0.36 0.37 0.39 0.43 0.47 0.49
0.18 0.18 0.18 0.18 0.17 0.18 0.19 0.20 0.21 0.23 0.19 0.17 0.20 0.21 0.21 0.22 0.22 0.25 0.27 0.26 0.26 0.29 0.31 0.28 0.26 0.27 0.26 0.26 0.28 0.31 0.31 0.30 0.31 0.32 0.35 0.44 0.50 0.53
0.19 0.19 0.19 0.19 0.19 0.20 0.22 0.22 0.22 0.22 0.22 0.20 0.20 0.22 0.23 0.25 0.26 0.26 0.26 0.27 0.29 0.28 0.25 0.25 0.24 0.24 0.24 0.26 0.27 0.31 0.34 0.34 0.34 0.36 0.38 0.44 0.46 0.51
0.21 0.20 0.20 0.20 0.20 0.21 0.22 0.23 0.23 0.24 0.25 0.25 0.24 0.24 0.26 0.29 0.28 0.26 0.25 0.25 0.23 0.24 0.24 0.22 0.23 0.24 0.27 0.28 0.24 0.25 0.29 0.32 0.31 0.32 0.37 0.43 0.40 0.46
0.21 0.21 0.20 0.21 0.21 0.23 0.23 0.24 0.25 0.25 0.24 0.23 0.23 0.27 0.27 0.26 0.23 0.19 0.17 0.21 0.21 0.22 0.23 0.24 0.27 0.27 0.22 0.23 0.24 0.25 0.27 0.27 0.31 0.32 0.34 0.40 0.42 0.47
0.21 0.22 0.22 0.23 0.24 0.25 0.25 0.24 0.23 0.22 0.24 0.26 0.26 0.24 0.20 0.18 0.17 0.19 0.20 0.22 0.21 0.23 0.24 0.24 0.21 0.21 0.23 0.24 0.25 0.27 0.28 0.33 0.31 0.34 0.40 0.39 0.39 0.42
0.21 0.21 0.22 0.23 0.23 0.24 0.24 0.25 0.27 0.26 0.27 0.26 0.24 0.20 0.18 0.18 0.19 0.20 0.22 0.20 0.16 0.23 0.22 0.21 0.24 0.23 0.26 0.27 0.30 0.31 0.29 0.29 0.31 0.34 0.36 0.38 0.34 0.37
0.22 0.21 0.22 0.23 0.24 0.24 0.24 0.26 0.27 0.29 0.29 0.26 0.21 0.20 0.19 0.21 0.25 0.23 0.20 0.20 0.20 0.23 0.25 0.22 0.25 0.23 0.26 0.28 0.29 0.31 0.33 0.35 0.36 0.36 0.32 0.32 0.32 0.35
0.22 0.23 0.23 0.22 0.24 0.24 0.25 0.24 0.27 0.28 0.26 0.24 0.22 0.23 0.26 0.26 0.23 0.22 0.23 0.25 0.26 0.26 0.27 0.21 0.24 0.23 0.26 0.28 0.31 0.33 0.35 0.37 0.38 0.40 0.41 0.37 0.38 0.35
0.22 0.23 0.24 0.23 0.23 0.23 0.23 0.26 0.24 0.22 0.22 0.23 0.27 0.25 0.23 0.23 0.25 0.27 0.25 0.24 0.22 0.23 0.25 0.23 0.23 0.23 0.26 0.27 0.30 0.33 0.36 0.36 0.36 0.36 0.35 0.34 0.33 0.31
0.20 0.22 0.22 0.22 0.22 0.25 0.28 0.24 0.19 0.18 0.23 0.24 0.20 0.21 0.24 0.27 0.29 0.29 0.28 0.24 0.24 0.23 0.25 0.24 0.24 0.24 0.22 0.27 0.29 0.32 0.35 0.36 0.37 0.38 0.37 0.35 0.33 0.32
0.21 0.21 0.21 0.21 0.27 0.26 0.23 0.20 0.20 0.23 0.22 0.21 0.23 0.26 0.28 0.28 0.29 0.30 0.31 0.29 0.26 0.26 0.29 0.30 0.26 0.25 0.25 0.24 0.29 0.32 0.35 0.35 0.37 0.39 0.40 0.40 0.39 0.37
0.22 0.21 0.22 0.28 0.22 0.21 0.21 0.21 0.22 0.23 0.23 0.25 0.26 0.27 0.27 0.28 0.30 0.31 0.32 0.32 0.33 0.31 0.34 0.34 0.29 0.28 0.25 0.24 0.25 0.29 0.34 0.38 0.40 0.41 0.43 0.46 0.46 0.46
0.23 0.25 0.25 0.21 0.20 0.19 0.20 0.21 0.24 0.25 0.26 0.26 0.26 0.27 0.29 0.31 0.32 0.32 0.33 0.33 0.33 0.34 0.35 0.35 0.33 0.32 0.30 0.27 0.27 0.30 0.33 0.38 0.43 0.44 0.45 0.48 0.48 0.52
0.25 0.23 0.20 0.19 0.19 0.19 0.21 0.24 0.27 0.27 0.27 0.27 0.28 0.29 0.31 0.31 0.30 0.32 0.31 0.31 0.31 0.30 0.33 0.35 0.35 0.33 0.30 0.29 0.30 0.31 0.37 0.36 0.43 0.46 0.47 0.47 0.50 0.53
0.22 0.19 0.18 0.18 0.18 0.20 0.25 0.26 0.27 0.28 0.28 0.29 0.29 0.29 0.30 0.30 0.30 0.32 0.32 0.31 0.30 0.29 0.30 0.33 0.35 0.35 0.33 0.31 0.30 0.35 0.37 0.39 0.43 0.44 0.44 0.43 0.47 0.52
0.20 0.17 0.17 0.18 0.21 0.25 0.25 0.26 0.28 0.28 0.29 0.29 0.30 0.30 0.29 0.30 0.30 0.32 0.32 0.31 0.30 0.30 0.31 0.33 0.33 0.31 0.31 0.34 0.38 0.35 0.38 0.40 0.43 0.45 0.46 0.45 0.46 0.51
0.18 0.17 0.19 0.22 0.25 0.26 0.27 0.27 0.27 0.29 0.30 0.29 0.28 0.29 0.29 0.31 0.31 0.31 0.32 0.32 0.32 0.32 0.32 0.33 0.32 0.30 0.27 0.27 0.36 0.43 0.40 0.42 0.44 0.45 0.47 0.47 0.45 0.48
0.18 0.20 0.23 0.25 0.26 0.27 0.27 0.28 0.28 0.28 0.28 0.28 0.28 0.28 0.29 0.29 0.30 0.31 0.32 0.32 0.32 0.33 0.32 0.34 0.33 0.33 0.30 0.30 0.32 0.38 0.47 0.44 0.43 0.43 0.45 0.50 0.52 0.55
0.21 0.23 0.26 0.27 0.28 0.28 0.28 0.28 0.28 0.27 0.27 0.28 0.27 0.27 0.29 0.30 0.29 0.30 0.30 0.32 0.33 0.33 0.31 0.33 0.35 0.39 0.39 0.38 0.34 0.36 0.42 0.48 0.48 0.45 0.46 0.45 0.45 0.47
0.24 0.25 0.27 0.28 0.28 0.28 0.28 0.27 0.27 0.27 0.27 0.27 0.28 0.29 0.30 0.30 0.28 0.29 0.30 0.30 0.30 0.33 0.34 0.35 0.37 0.38 0.37 0.34 0.33 0.35 0.38 0.43 0.48 0.50 0.51 0.50 0.45 0.41
0.26 0.27 0.28 0.28 0.28 0.28 0.28 0.27 0.27 0.27 0.27 0.28 0.28 0.30 0.31 0.29 0.30 0.30 0.31 0.31 0.31 0.31 0.34 0.34 0.34 0.37 0.36 0.36 0.35 0.35 0.36 0.38 0.41 0.41 0.44 0.50 0.52 0.53

GFSNE_prec_pwat_012.txt.gz
Precipitable_Water
0.26 0.24 0.21 0.20 0.19 0.19 0.18 0.17 0.16 0.13 0.13 0.16 0.18 0.23 0.23 0.23 0.23 0.23 0.24 0.26 0.27 0.28 0.28 0.29 0.30 0.31 0.32 0.34 0.37 0.36 0.36 0.34 0.34 0.37 0.36 0.36 0.41 0.42
0.24 0.22 0.21 0.21 0.21 0.20 0.19 0.20 0.20 0.18 0.15 0.18 0.19 0.21 0.23 0.24 0.24 0.25 0.27 0.28 0.28 0.28 0.28 0.27 0.27 0.28 0.32 0.32 0.29 0.31 0.34 0.31 0.30 0.31 0.33 0.34 0.37 0.40
0.22 0.21 0.21 0.22 0.21 0.20 0.21 0.22 0.21 0.22 0.20 0.19 0.21 0.22 0.22 0.22 0.24 0.27 0.30 0.30 0.30 0.26 0.25 0.26 0.26 0.28 0.29 0.29 0.28 0.28 0.29 0.30 0.32 0.34 0.35 0.36 0.36 0.37
0.21 0.22 0.21 0.22 0.21 0.21 0.22 0.22 0.23 0.23 0.23 0.20 0.21 0.22 0.22 0.23 0.25 0.29 0.29 0.26 0.24 0.22 0.22 0.25 0.25 0.24 0.25 0.26 0.27 0.28 0.29 0.36 0.33 0.32 0.32 0.35 0.38 0.40
0.22 0.22 0.21 0.22 0.20 0.21 0.22 0.22 0.24 0.25 0.25 0.22 0.19 0.22 0.22 0.27 0.29 0.25 0.21 0.19 0.18 0.20 0.23 0.24 0.25 0.25 0.27 0.29 0.30 0.32 0.27 0.27 0.28 0.30 0.30 0.32 0.33 0.34
0.22 0.22 0.22 0.22 0.21 0.22 0.22 0.23 0.24 0.21 0.21 0.21 0.23 0.24 0.26 0.27 0.23 0.19 0.16 0.18 0.18 0.23 0.26 0.24 0.23 0.24 0.24 0.24 0.24 0.24 0.25 0.26 0.26 0.28 0.30 0.29 0.30 0.34
0.21 0.22 0.23 0.23 0.23 0.23 0.24 0.23 0.22 0.23 0.24 0.24 0.20 0.22 0.23 0.19 0.17 0.18 0.18 0.19 0.23 0.23 0.20 0.21 0.23 0.24 0.24 0.24 0.23 0.24 0.25 0.26 0.28 0.30 0.31 0.32 0.33 0.33
0.21 0.22 0.22 0.22 0.22 0.23 0.23 0.23 0.24 0.23 0.21 0.22 0.24 0.20 0.18 0.19 0.19 0.20 0.21 0.20 0.17 0.23 0.23 0.24 0.27 0.25 0.26 0.27 0.26 0.27 0.28 0.29 0.32 0.32 0.31 0.33 0.31 0.32
0.21 0.20 0.20 0.22 0.23 0.22 0.22 0.23 0.24 0.25 0.29 0.24 0.19 0.19 0.19 0.22 0.24 0.22 0.21 0.22 0.23 0.25 0.26 0.23 0.25 0.24 0.26 0.26 0.26 0.27 0.29 0.31 0.32 0.36 0.36 0.36 0.35 0.35
0.20 0.21 0.21 0.21 0.22 0.21 0.22 0.24 0.27 0.25 0.22 0.21 0.21 0.23 0.25 0.24 0.24 0.26 0.26 0.27 0.27 0.26 0.26 0.22 0.24 0.24 0.25 0.25 0.26 0.28 0.29 0.32 0.34 0.37 0.38 0.40 0.39 0.39
0.21 0.22 0.23 0.21 0.21 0.24 0.27 0.23 0.21 0.19 0.20 0.24 0.26 0.24 0.25 0.28 0.29 0.29 0.26 0.25 0.23 0.24 0.26 0.25 0.25 0.25 0.24 0.24 0.26 0.28 0.31 0.34 0.35 0.37 0.38 0.37 0.38 0.39
0.22 0.23 0.23 0.22 0.24 0.27 0.23 0.20 0.18 0.18 0.23 0.24 0.24 0.26 0.28 0.29 0.30 0.30 0.29 0.25 0.25 0.24 0.26 0.26 0.27 0.27 0.22 0.25 0.26 0.28 0.30 0.33 0.35 0.36 0.36 0.37 0.37 0.37
0.22 0.20 0.21 0.24 0.24 0.22 0.22 0.20 0.20 0.25 0.26 0.25 0.26 0.27 0.29 0.30 0.30 0.31 0.32 0.30 0.26 0.26 0.29 0.30 0.28 0.28 0.27 0.23 0.26 0.27 0.31 0.33 0.35 0.38 0.39 0.39 0.39 0.37
0.20 0.21 0.24 0.23 0.22 0.21 0.20 0.21 0.25 0.28 0.26 0.26 0.27 0.27 0.28 0.29 0.31 0.32 0.33 0.33 0.33 0.31 0.33 0.33 0.28 0.28 0.28 0.26 0.24 0.27 0.33 0.36 0.39 0.40 0.41 0.42 0.41 0.40
0.23 0.23 0.23 0.21 0.19 0.19 0.21 0.27 0.28 0.27 0.27 0.27 0.27 0.28 0.30 0.31 0.32 0.32 0.33 0.33 0.33 0.33 0.35 0.34 0.32 0.31 0.30 0.28 0.28 0.30 0.33 0.37 0.41 0.42 0.43 0.44 0.43 0.42
0.22 0.22 0.20 0.18 0.19 0.23 0.26 0.27 0.27 0.28 0.28 0.28 0.28 0.30 0.31 0.31 0.31 0.32 0.31 0.32 0.31 0.31 0.34 0.36 0.35 0.33 0.30 0.31 0.32 0.32 0.35 0.33 0.40 0.42 0.44 0.46 0.47 0.48
0.21 0.19 0.16 0.18 0.22 0.25 0.26 0.27 0.28 0.29 0.29 0.29 0.28 0.28 0.28 0.29 0.31 0.32 0.32 0.32 0.30 0.30 0.31 0.34 0.35 0.35 0.35 0.34 0.32 0.35 0.36 0.38 0.41 0.42 0.42 0.42 0.48 0.49
0.18 0.16 0.19 0.23 0.24 0.25 0.26 0.27 0.28 0.28 0.28 0.28 0.28 0.27 0.27 0.28 0.30 0.32 0.32 0.31 0.30 0.31 0.31 0.33 0.33 0.32 0.33 0.35 0.39 0.36 0.38 0.40 0.43 0.45 0.45 0.42 0.43 0.50
0.17 0.20 0.23 0.25 0.25 0.26 0.27 0.28 0.27 0.28 0.29 0.28 0.28 0.27 0.28 0.29 0.28 0.29 0.31 0.32 0.31 0.32 0.33 0.34 0.32 0.31 0.29 0.29 0.37 0.44 0.39 0.42 0.43 0.44 0.44 0.44 0.43 0.47
0.20 0.23 0.24 0.26 0.27 0.27 0.27 0.27 0.26 0.27 0.26 0.26 0.27 0.27 0.28 0.28 0.28 0.29 0.29 0.29 0.32 0.33 0.33 0.34 0.34 0.33 0.31 0.31 0.33 0.39 0.47 0.44 0.43 0.43 0.44 0.47 0.51 0.53
0.23 0.25 0.26 0.27 0.27 0.27 0.27 0.27 0.27 0.27 0.26 0.26 0.27 0.28 0.28 0.28 0.28 0.29 0.30 0.30 0.32 0.33 0.32 0.32 0.36 0.40 0.39 0.40 0.35 0.37 0.43 0.49 0.49 0.45 0.45 0.45 0.45 0.46
0.25 0.26 0.26 0.27 0.27 0.27 0.27 0.27 0.27 0.27 0.26 0.27 0.28 0.28 0.29 0.29 0.28 0.28 0.29 0.29 0.30 0.32 0.33 0.35 0.38 0.38 0.37 0.34 0.34 0.36 0.39 0.44 0.49 0.51 0.51 0.50 0.44 0.40
0.25 0.26 0.26 0.27 0.27 0.27 0.27 0.28 0.28 0.27 0.27 0.28 0.28 0.28 0.29 0.28 0.30 0.30 0.30 0.30 0.31 0.30 0.33 0.33 0.35 0.36 0.35 0.35 0.35 0.36 0.37 0.38 0.41 0.42 0.45 0.51 0.52 0.53

GFSNE_prec_pwat_015.txt.gz
Precipitable_Water
0.29 0.29 0.28 0.27 0.25 0.24 0.22 0.21 0.18 0.14 0.14 0.18 0.19 0.23 0.23 0.24 0.25 0.26 0.24 0.24 0.26 0.29 0.30 0.30 0.31 0.30 0.29 0.29 0.31 0.32 0.33 0.35 0.40 0.42 0.42 0.42 0.42 0.40
0.30 0.29 0.26 0.25 0.24 0.23 0.22 0.21 0.21 0.19 0.16 0.18 0.19 0.21 0.24 0.25 0.25 0.25 0.25 0.27 0.28 0.30 0.31 0.30 0.28 0.26 0.27 0.28 0.29 0.31 0.32 0.35 0.38 0.37 0.37 0.39 0.40 0.38
0.29 0.26 0.24 0.24 0.23 0.23 0.22 0.22 0.22 0.21 0.18 0.17 0.20 0.21 0.20 0.20 0.23 0.25 0.27 0.30 0.32 0.30 0.28 0.26 0.24 0.24 0.25 0.27 0.31 0.31 0.30 0.31 0.33 0.33 0.34 0.34 0.36 0.38
0.25 0.23 0.22 0.23 0.23 0.23 0.22 0.21 0.21 0.22 0.21 0.18 0.19 0.18 0.18 0.21 0.22 0.22 0.28 0.28 0.27 0.24 0.22 0.22 0.23 0.25 0.26 0.29 0.28 0.28 0.30 0.30 0.31 0.33 0.36 0.38 0.37 0.37
0.24 0.23 0.23 0.23 0.22 0.22 0.22 0.21 0.22 0.23 0.24 0.20 0.18 0.20 0.21 0.22 0.22 0.27 0.24 0.22 0.20 0.20 0.21 0.22 0.24 0.26 0.26 0.25 0.25 0.28 0.30 0.30 0.31 0.31 0.31 0.31 0.31 0.32
0.24 0.24 0.23 0.22 0.21 0.21 0.22 0.22 0.24 0.21 0.20 0.20 0.21 0.21 0.21 0.25 0.25 0.20 0.17 0.19 0.19 0.22 0.24 0.24 0.23 0.24 0.24 0.26 0.26 0.26 0.26 0.26 0.26 0.27 0.27 0.28 0.28 0.29
0.24 0.23 0.22 0.22 0.22 0.22 0.23 0.21 0.20 0.21 0.22 0.22 0.20 0.22 0.20 0.18 0.18 0.19 0.18 0.20 0.23 0.24 0.23 0.24 0.25 0.26 0.26 0.27 0.27 0.27 0.27 0.28 0.27 0.28 0.29 0.30 0.30 0.31
0.21 0.20 0.20 0.20 0.21 0.22 0.21 0.22 0.24 0.23 0.23 0.24 0.21 0.18 0.17 0.18 0.20 0.22 0.24 0.23 0.21 0.27 0.25 0.25 0.27 0.25 0.26 0.27 0.27 0.28 0.29 0.29 0.30 0.30 0.31 0.32 0.32 0.36
0.20 0.20 0.20 0.21 0.22 0.21 0.22 0.24 0.29 0.27 0.25 0.22 0.18 0.18 0.20 0.24 0.28 0.26 0.26 0.26 0.25 0.27 0.28 0.25 0.26 0.25 0.27 0.27 0.28 0.27 0.28 0.29 0.29 0.30 0.32 0.34 0.35 0.35
0.21 0.21 0.21 0.21 0.23 0.22 0.25 0.26 0.23 0.21 0.20 0.20 0.22 0.25 0.29 0.29 0.29 0.29 0.29 0.29 0.29 0.28 0.28 0.23 0.27 0.26 0.29 0.29 0.29 0.27 0.27 0.29 0.30 0.31 0.33 0.34 0.36 0.39
0.21 0.23 0.23 0.23 0.22 0.25 0.25 0.21 0.20 0.19 0.20 0.26 0.31 0.30 0.29 0.30 0.31 0.31 0.27 0.26 0.24 0.25 0.28 0.26 0.26 0.27 0.28 0.29 0.28 0.27 0.28 0.29 0.29 0.31 0.34 0.36 0.36 0.36
0.23 0.22 0.22 0.21 0.23 0.25 0.22 0.20 0.17 0.19 0.28 0.29 0.26 0.27 0.29 0.30 0.32 0.31 0.30 0.26 0.26 0.24 0.27 0.26 0.26 0.27 0.24 0.28 0.27 0.27 0.27 0.28 0.31 0.35 0.36 0.37 0.38 0.37
0.19 0.20 0.20 0.22 0.23 0.22 0.21 0.20 0.24 0.30 0.28 0.26 0.27 0.28 0.30 0.31 0.31 0.33 0.33 0.30 0.27 0.26 0.29 0.30 0.27 0.27 0.26 0.26 0.28 0.28 0.30 0.31 0.36 0.37 0.39 0.40 0.40 0.40
0.20 0.20 0.22 0.22 0.21 0.20 0.22 0.27 0.29 0.29 0.27 0.27 0.27 0.28 0.28 0.29 0.31 0.33 0.34 0.34 0.34 0.31 0.33 0.33 0.28 0.28 0.27 0.27 0.27 0.31 0.34 0.37 0.39 0.39 0.40 0.42 0.42 0.42
0.22 0.21 0.21 0.20 0.18 0.22 0.26 0.28 0.28 0.27 0.28 0.27 0.26 0.27 0.28 0.29 0.31 0.33 0.34 0.34 0.34 0.34 0.35 0.35 0.32 0.31 0.31 0.29 0.29 0.32 0.33 0.37 0.39 0.39 0.41 0.42 0.41 0.42
0.21 0.20 0.19 0.18 0.22 0.26 0.26 0.27 0.28 0.29 0.28 0.27 0.27 0.28 0.29 0.29 0.29 0.32 0.31 0.32 0.32 0.31 0.35 0.35 0.36 0.35 0.32 0.33 0.34 0.33 0.36 0.34 0.39 0.41 0.42 0.44 0.45 0.45
0.20 0.17 0.16 0.21 0.24 0.25 0.26 0.27 0.28 0.29 0.28 0.27 0.27 0.27 0.27 0.28 0.29 0.30 0.31 0.32 0.30 0.30 0.31 0.33 0.37 0.38 0.38 0.36 0.34 0.36 0.37 0.39 0.41 0.42 0.42 0.41 0.45 0.44
0.17 0.16 0.20 0.24 0.25 0.26 0.26 0.27 0.27 0.27 0.27 0.26 0.26 0.27 0.26 0.27 0.27 0.30 0.30 0.31 0.30 0.31 0.32 0.33 0.34 0.34 0.36 0.37 0.41 0.37 0.40 0.39 0.42 0.44 0.43 0.40 0.42 0.48
0.16 0.20 0.23 0.25 0.26 0.26 0.26 0.26 0.25 0.27 0.28 0.26 0.26 0.26 0.27 0.27 0.27 0.28 0.29 0.29 0.31 0.32 0.34 0.35 0.34 0.33 0.30 0.29 0.37 0.45 0.39 0.41 0.42 0.42 0.43 0.43 0.41 0.44
0.20 0.23 0.25 0.25 0.25 0.26 0.26 0.26 0.26 0.27 0.27 0.25 0.26 0.27 0.27 0.27 0.26 0.27 0.27 0.28 0.30 0.32 0.33 0.35 0.34 0.33 0.32 0.31 0.32 0.39 0.47 0.42 0.42 0.42 0.43 0.44 0.47 0.52
0.23 0.24 0.25 0.26 0.26 0.26 0.26 0.27 0.27 0.27 0.26 0.26 0.27 0.27 0.27 0.27 0.26 0.27 0.28 0.29 0.30 0.32 0.31 0.32 0.35 0.39 0.40 0.39 0.35 0.36 0.42 0.48 0.47 0.44 0.44 0.43 0.43 0.44
0.24 0.24 0.26 0.26 0.26 0.27 0.27 0.28 0.28 0.28 0.28 0.28 0.28 0.28 0.28 0.28 0.27 0.28 0.28 0.28 0.29 0.30 0.33 0.35 0.38 0.37 0.36 0.34 0.33 0.36 0.38 0.43 0.48 0.49 0.49 0.46 0.41 0.34
0.23 0.25 0.26 0.27 0.28 0.28 0.28 0.28 0.28 0.28 0.29 0.29 0.29 0.29 0.29 0.28 0.29 0.29 0.30 0.30 0.30 0.30 0.32 0.33 0.35 0.35 0.35 0.35 0.35 0.35 0.38 0.39 0.41 0.42 0.45 0.49 0.48 0.49

GFSNE_prec_pwat_021.txt.gz
Precipitable_Water
0.32 0.33 0.32 0.32 0.31 0.30 0.27 0.24 0.21 0.17 0.17 0.19 0.19 0.22 0.22 0.23 0.22 0.22 0.22 0.23 0.25 0.26 0.26 0.26 0.27 0.28 0.31 0.32 0.33 0.32 0.35 0.36 0.36 0.37 0.37 0.38 0.40 0.42
0.34 0.34 0.31 0.30 0.29 0.27 0.25 0.25 0.24 0.20 0.16 0.18 0.18 0.21 0.22 0.22 0.23 0.24 0.24 0.24 0.24 0.25 0.26 0.28 0.28 0.30 0.28 0.30 0.31 0.31 0.30 0.30 0.32 0.33 0.33 0.34 0.37 0.40
0.33 0.31 0.29 0.28 0.25 0.24 0.24 0.23 0.22 0.21 0.17 0.16 0.19 0.20 0.20 0.22 0.23 0.25 0.26 0.27 0.26 0.24 0.24 0.25 0.26 0.28 0.28 0.29 0.30 0.30 0.30 0.31 0.31 0.32 0.35 0.37 0.40 0.43
0.31 0.30 0.27 0.25 0.23 0.23 0.22 0.21 0.21 0.22 0.20 0.16 0.17 0.19 0.20 0.22 0.23 0.25 0.24 0.23 0.21 0.23 0.26 0.28 0.30 0.31 0.32 0.33 0.33 0.33 0.34 0.33 0.33 0.31 0.32 0.33 0.34 0.36
0.30 0.27 0.23 0.23 0.22 0.22 0.22 0.22 0.22 0.22 0.21 0.20 0.17 0.20 0.22 0.25 0.22 0.21 0.20 0.23 0.26 0.27 0.28 0.30 0.31 0.32 0.33 0.34 0.34 0.33 0.34 0.33 0.33 0.32 0.31 0.31 0.32 0.33
0.28 0.26 0.24 0.24 0.23 0.23 0.24 0.24 0.24 0.21 0.20 0.20 0.21 0.22 0.21 0.20 0.20 0.21 0.22 0.26 0.27 0.30 0.30 0.32 0.32 0.32 0.32 0.32 0.32 0.32 0.32 0.32 0.32 0.32 0.33 0.34 0.34 0.32
0.26 0.25 0.25 0.25 0.25 0.26 0.24 0.23 0.21 0.21 0.21 0.23 0.21 0.19 0.17 0.20 0.21 0.24 0.25 0.27 0.29 0.30 0.29 0.30 0.30 0.30 0.31 0.31 0.31 0.31 0.31 0.32 0.33 0.34 0.34 0.34 0.34 0.35
0.25 0.24 0.24 0.24 0.23 0.24 0.23 0.23 0.24 0.23 0.24 0.21 0.19 0.17 0.21 0.23 0.25 0.26 0.28 0.26 0.23 0.30 0.29 0.29 0.31 0.30 0.30 0.31 0.30 0.31 0.32 0.33 0.34 0.35 0.36 0.36 0.35 0.35
0.24 0.23 0.23 0.23 0.22 0.22 0.21 0.23 0.25 0.27 0.24 0.21 0.19 0.23 0.24 0.27 0.30 0.28 0.27 0.27 0.26 0.29 0.30 0.27 0.30 0.29 0.30 0.30 0.30 0.31 0.33 0.33 0.34 0.34 0.33 0.33 0.32 0.32
0.24 0.22 0.22 0.21 0.22 0.22 0.22 0.25 0.23 0.22 0.21 0.24 0.27 0.28 0.31 0.32 0.30 0.29 0.29 0.29 0.29 0.29 0.31 0.25 0.29 0.28 0.30 0.31 0.32 0.34 0.35 0.34 0.33 0.33 0.33 0.33 0.33 0.33
0.22 0.22 0.22 0.21 0.22 0.22 0.24 0.22 0.20 0.20 0.25 0.29 0.32 0.32 0.31 0.31 0.31 0.30 0.27 0.26 0.24 0.26 0.30 0.28 0.28 0.27 0.30 0.31 0.34 0.36 0.37 0.37 0.36 0.36 0.35 0.34 0.34 0.33
0.22 0.21 0.21 0.21 0.21 0.24 0.22 0.20 0.19 0.22 0.28 0.31 0.28 0.28 0.29 0.29 0.30 0.30 0.29 0.25 0.26 0.24 0.29 0.28 0.27 0.28 0.25 0.29 0.32 0.36 0.38 0.39 0.40 0.40 0.40 0.41 0.41 0.40
0.19 0.19 0.19 0.20 0.23 0.21 0.21 0.21 0.25 0.30 0.29 0.28 0.27 0.27 0.28 0.28 0.28 0.29 0.30 0.28 0.26 0.26 0.31 0.32 0.28 0.29 0.29 0.28 0.31 0.35 0.38 0.39 0.41 0.43 0.43 0.43 0.43 0.42
0.19 0.19 0.19 0.22 0.20 0.19 0.22 0.28 0.30 0.30 0.27 0.27 0.26 0.26 0.26 0.26 0.28 0.29 0.31 0.31 0.32 0.31 0.34 0.35 0.29 0.30 0.29 0.29 0.29 0.34 0.37 0.40 0.42 0.41 0.42 0.43 0.43 0.44
0.20 0.20 0.20 0.19 0.18 0.20 0.27 0.29 0.29 0.26 0.26 0.25 0.25 0.25 0.26 0.27 0.29 0.29 0.30 0.31 0.32 0.32 0.36 0.36 0.34 0.33 0.33 0.31 0.31 0.33 0.34 0.38 0.41 0.41 0.42 0.42 0.42 0.43
0.20 0.20 0.18 0.16 0.19 0.27 0.27 0.27 0.27 0.27 0.26 0.26 0.26 0.26 0.27 0.27 0.27 0.28 0.26 0.27 0.27 0.28 0.34 0.37 0.37 0.36 0.33 0.34 0.34 0.33 0.37 0.35 0.40 0.42 0.43 0.44 0.45 0.44
0.19 0.17 0.15 0.17 0.24 0.25 0.25 0.26 0.26 0.27 0.26 0.27 0.26 0.25 0.26 0.26 0.26 0.27 0.27 0.27 0.25 0.25 0.28 0.34 0.37 0.38 0.37 0.35 0.32 0.35 0.36 0.38 0.41 0.42 0.43 0.42 0.44 0.42
0.16 0.14 0.16 0.22 0.23 0.24 0.24 0.25 0.26 0.26 0.27 0.27 0.27 0.27 0.26 0.26 0.26 0.27 0.27 0.26 0.25 0.25 0.27 0.33 0.34 0.32 0.32 0.33 0.37 0.36 0.38 0.39 0.42 0.44 0.45 0.40 0.37 0.43
0.14 0.15 0.21 0.22 0.23 0.24 0.25 0.25 0.25 0.27 0.28 0.27 0.27 0.27 0.27 0.27 0.26 0.26 0.26 0.26 0.26 0.26 0.28 0.33 0.34 0.32 0.28 0.26 0.32 0.41 0.38 0.39 0.41 0.42 0.44 0.42 0.39 0.42
0.16 0.20 0.21 0.23 0.24 0.25 0.26 0.26 0.27 0.28 0.28 0.29 0.29 0.28 0.28 0.27 0.26 0.26 0.26 0.26 0.26 0.27 0.28 0.32 0.34 0.33 0.30 0.30 0.31 0.36 0.44 0.41 0.40 0.40 0.40 0.46 0.47 0.49
0.18 0.21 0.23 0.24 0.25 0.26 0.27 0.28 0.28 0.29 0.29 0.29 0.30 0.30 0.30 0.29 0.28 0.28 0.28 0.28 0.28 0.27 0.26 0.30 0.35 0.37 0.37 0.37 0.33 0.35 0.40 0.46 0.45 0.42 0.41 0.41 0.37 0.38
0.20 0.22 0.24 0.25 0.27 0.27 0.28 0.29 0.29 0.29 0.30 0.30 0.30 0.31 0.31 0.30 0.29 0.29 0.29 0.28 0.28 0.28 0.29 0.33 0.36 0.36 0.34 0.32 0.32 0.35 0.38 0.41 0.45 0.46 0.46 0.44 0.39 0.33
0.21 0.23 0.25 0.26 0.28 0.28 0.28 0.29 0.29 0.29 0.30 0.31 0.31 0.31 0.31 0.30 0.31 0.30 0.30 0.30 0.29 0.29 0.30 0.32 0.34 0.35 0.33 0.33 0.33 0.35 0.36 0.38 0.40 0.40 0.42 0.46 0.47 0.49